Terug naar catalogus

OKEAN O

ActiefWetenschapSSO
NORAD 25860·PAYLOAD·🇷🇺 Russia

Gelanceerd Jul 17, 1999 vanaf Baikonur Cosmodrome

Loading…

Volgende Passages (komende 24 uur)

TLE

VersSource: Space-Track

Epoch: Sep 14, 2026, 15:03 UTC

1 25860U 99039A   26257.62776659  .00000412  00000-0  60504-4 0  9997
2 25860  97.9225 315.3592 0001947  89.5266 270.6169 14.80552538462343

Volg OKEAN O in realtime met AllMySat

Download on the App Store